GPS BIIF-5

Last updated on Sun Apr 12 2026 00:02:39 GMT+0000 (Coordinated Universal Time)

1 39533U 14008A 26100.87524186 .00000034 00000+0 00000+0 0 9991 2 39533 53.6418 152.0660 0083451 229.6084 129.7313 2.00555538 88335
UTC large
Height (km)
Speed (km/s)
/
Latitude / Longitude
Inclination (degrees)
Orbital Period (minutes)
Azimuth
Elevation
Range (km)
Doppler Factor

Next 0 passes for location: London (51.5072 / 0.1276)

Sorry there are no passes over London.